GFSFLT2_con_mucape_150.txt.gz
CAPE
1801 1751 1793 1883 1675 1614 1497 1408 1348 1273 1259 1362 1519 1868 2165 2233 2114 1920 1939 2065 2056 2003 1881 1693 1909 2026 1815 1671 1252 964 633 387
1575 2060 2101 2198 2172 1817 1534 1436 1338 1252 1196 1281 1363 1283 1288 1309 1107 1198 1330 1425 1530 1573 1626 1732 1624 1389 1575 1703 1586 1540 1308 946
1496 1643 1751 1703 1968 2174 2134 1969 1847 1747 1451 1211 1301 1528 1525 1418 1138 1158 1259 1191 1107 1054 1079 1149 1373 1414 1375 1115 1472 1144 1502 1343
462 649 866 1280 1651 1936 2242 2202 1727 1633 1551 1305 1209 1216 1425 1487 1225 1364 1333 1273 1275 1057 981 929 854 902 1118 1173 1094 886 937 1030
6 1 0 86 738 938 1153 1448 1373 1018 950 1106 1188 1023 738 951 939 1316 1113 1235 945 407 792 731 586 530 581 997 929 844 738 481
0 0 0 0 0 6 95 61 595 547 198 245 227 258 819 1018 1176 1128 690 481 408 326 328 174 307 310 342 954 850 650 434 292
0 0 0 0 0 0 0 0 0 59 180 9 39 28 186 91 425 393 418 468 455 182 5 0 1 0 59 414 516 605 504 321
0 0 0 0 0 0 0 0 0 0 0 0 0 0 0 0 0 0 0 0 0 0 0 0 0 0 4 256 457 454 461 431
0 0 0 0 0 0 0 0 0 0 0 0 0 0 0 0 0 0 0 0 0 0 0 0 0 0 0 0 170 376 282 248
0 0 0 0 0 0 0 0 0 0 0 0 0 0 0 0 0 0 0 0 0 0 0 0 0 0 0 0 0 4 151 138
0 0 0 0 0 0 0 0 0 0 0 0 0 0 0 0 0 0 0 0 0 0 0 0 0 0 0 0 0 0 0 0
0 0 0 0 0 0 0 0 0 0 0 0 0 0 0 0 0 0 0 0 0 0 0 0 0 0 0 0 0 0 0 0
0 0 0 0 0 0 0 0 0 0 0 0 0 0 0 0 0 0 0 0 0 0 0 0 0 0 0 0 0 0 0 0
0 0 0 0 0 0 0 0 0 0 0 0 0 0 0 0 0 0 0 0 0 0 0 0 0 0 0 0 0 0 0 0
0 0 0 0 0 0 0 0 0 0 0 0 0 0 0 0 0 0 0 0 0 0 0 0 0 0 0 0 0 0 0 0
0 0 0 0 0 0 0 0 0 0 0 0 0 0 0 0 0 0 0 0 0 0 0 0 0 0 0 0 0 0 0 0
0 0 0 0 0 0 0 0 0 0 0 0 0 0 0 0 0 0 0 0 0 0 0 0 0 0 0 0 0 0 0 0
0 0 0 0 0 0 0 0 0 0 0 0 0 0 0 0 0 0 0 0 0 0 0 0 0 0 0 0 0 0 0 0
0 0 0 0 0 0 0 0 0 0 0 0 0 0 0 0 0 0 0 0 0 0 0 0 0 0 0 0 0 0 0 0
0 0 0 0 0 0 0 0 0 0 0 0 0 0 0 0 0 0 0 0 0 0 0 0 0 0 0 0 0 0 0 0

GFSFLT2_con_mucape_156.txt.gz
CAPE
2189 2103 1414 1063 996 928 873 840 853 1065 1158 1235 1361 1426 1423 1540 1540 1549 1587 1610 1701 1721 1600 1534 1606 1741 1728 1377 1189 923 1251 988
2260 2261 2274 1479 965 1041 958 954 961 957 981 971 967 964 937 899 838 866 909 944 983 1002 1047 1158 1215 1282 1452 1588 1557 1399 1722 1426
1682 2104 2249 1485 1259 1225 1350 1297 1297 1347 1310 1197 1129 1514 1157 919 877 989 1018 939 1028 1037 959 816 738 837 1003 1208 1337 2114 1780 1806
1611 1743 1766 1148 1010 1048 767 632 688 1183 1154 1015 899 877 775 678 517 426 412 409 404 417 492 466 536 1498 1671 1334 2013 1988 2396 1996
699 928 1110 928 753 661 576 328 251 747 782 665 559 437 275 224 184 111 219 250 234 257 525 260 334 602 732 1197 1367 1836 2241 2299
0 37 76 4 0 0 0 0 0 1 42 60 40 56 50 9 3 1 0 0 23 37 15 59 25 17 120 403 769 938 1400 2408
0 0 0 0 0 0 0 0 0 0 0 0 0 0 0 0 0 0 0 0 0 0 0 0 0 0 0 78 250 488 602 798
0 0 0 0 0 0 0 0 0 0 0 0 0 0 0 0 0 0 0 0 0 0 0 0 0 0 0 1 4 113 346 756
0 0 0 0 0 0 0 0 0 0 0 0 0 0 0 0 0 0 0 0 0 0 0 0 0 0 0 0 0 0 0 78
0 0 0 0 0 0 0 0 0 0 0 0 0 0 0 0 0 0 0 0 0 0 0 0 0 0 0 0 0 0 0 0
0 0 0 0 0 0 0 0 0 0 0 0 0 0 0 0 0 0 0 0 0 0 0 0 0 0 0 0 0 0 0 0
0 0 0 0 0 0 0 0 0 0 0 0 0 0 0 0 0 0 0 0 0 0 0 0 0 0 0 0 0 0 0 0
0 0 0 0 0 0 0 0 0 0 0 0 0 0 0 0 0 0 0 0 0 0 0 0 0 0 0 0 0 0 0 0
0 0 0 0 0 0 0 0 0 0 0 0 0 0 0 0 0 0 0 0 0 0 0 0 0 0 0 0 0 0 0 0
0 0 0 0 0 0 0 0 0 0 0 0 0 0 0 0 0 0 0 0 0 0 0 0 0 0 0 0 0 0 0 0
0 0 0 0 0 0 0 0 0 0 0 0 0 0 0 0 0 0 0 0 0 0 0 0 0 0 0 0 0 0 0 0
0 0 0 0 0 0 0 0 0 0 0 0 0 0 0 0 0 0 0 0 0 0 0 0 0 0 0 0 0 0 0 0
0 0 0 0 0 0 0 0 0 0 0 0 0 0 0 0 0 0 0 0 0 0 0 0 0 0 0 0 0 0 0 0
0 0 0 0 0 0 0 0 0 0 0 0 0 0 0 0 0 0 0 0 0 0 0 0 0 0 0 0 0 0 0 0
0 0 0 0 0 0 0 0 0 0 0 0 0 0 0 0 0 0 0 0 0 0 0 0 0 0 0 0 0 0 0 0

GFSFLT2_con_mucape_162.txt.gz
CAPE
2055 1752 1396 1432 1420 1237 1280 1334 1567 1566 1774 1769 1776 1572 1562 1669 1575 1471 1486 1524 1487 1479 1420 1364 1335 1451 1506 1650 1732 1345 937 901
2058 1470 1325 1038 940 932 1018 1001 1177 1161 1227 1178 1265 1100 975 866 773 908 1019 893 823 769 763 724 714 686 750 936 1335 1504 1459 1246
1957 1817 1369 773 452 469 501 599 694 755 804 862 1111 1104 935 698 698 659 734 633 576 511 515 515 430 430 799 1114 1139 1208 1607 1553
2170 1936 1604 735 576 665 730 732 637 785 1008 853 1239 883 870 459 313 221 195 103 130 170 164 139 286 467 700 877 1193 1215 1373 1343
2499 2114 2078 1343 755 1269 549 509 419 548 645 871 734 591 319 117 70 0 0 0 1 0 32 68 84 217 259 326 560 609 651 781
2184 2001 1527 1055 666 544 219 45 27 0 202 265 166 176 5 2 0 0 0 0 0 0 0 0 0 0 0 0 66 116 219 426
1442 1562 1604 955 326 2 0 0 0 0 0 0 0 0 0 0 0 0 0 0 0 0 0 0 0 0 0 0 0 0 0 69
1306 1052 667 60 0 0 0 0 0 0 0 0 0 0 0 0 0 0 0 0 0 0 0 0 0 0 0 0 0 0 0 0
289 81 4 0 0 0 0 0 0 0 0 0 0 0 0 0 0 0 0 0 0 0 0 0 0 0 0 0 0 0 0 0
0 0 0 0 0 0 0 0 0 0 0 0 0 0 0 0 0 0 0 0 0 0 0 0 0 0 0 0 0 0 0 0
0 0 0 0 0 0 0 0 0 0 0 0 0 0 0 0 0 0 0 0 0 0 0 0 0 0 0 0 0 0 0 0
0 0 0 0 0 0 0 0 0 0 0 0 0 0 0 0 0 0 0 0 0 0 0 0 0 0 0 0 0 0 0 5
0 0 0 0 0 0 0 0 0 0 0 0 0 0 0 0 0 0 0 0 0 0 0 0 0 0 0 0 0 0 0 0
0 0 0 0 0 0 0 0 0 0 0 0 0 0 0 0 0 0 0 0 0 0 0 0 0 0 0 0 0 0 0 0
0 0 0 0 0 0 0 0 0 0 0 0 0 0 0 0 0 0 0 0 0 0 0 0 0 0 0 0 0 0 0 0
0 0 0 0 0 0 0 0 0 0 0 0 0 0 0 0 0 0 0 0 0 0 0 0 0 0 0 0 0 0 0 0
0 0 0 0 0 0 0 0 0 0 0 0 0 0 0 0 0 0 0 0 0 0 0 0 0 0 0 0 0 0 0 0
0 0 0 0 0 0 0 0 0 0 0 0 0 0 0 0 0 0 0 0 0 0 0 0 0 0 0 0 0 0 0 0
0 0 0 0 0 0 0 0 0 0 0 0 0 0 0 0 0 0 0 0 0 0 0 0 0 0 0 0 0 0 0 0
0 0 0 0 0 0 0 0 0 0 0 0 0 0 0 0 0 0 0 0 0 0 0 0 0 0 0 0 0 0 0 0

GFSFLT2_con_mucape_165.txt.gz
CAPE
1509 1574 1432 1326 1378 1444 1591 1701 1779 1947 2043 2028 1788 1632 1353 1214 1166 1336 1294 1321 1258 1223 1163 1115 1046 1060 1104 1233 1338 1489 1367 1036
1262 1272 1025 1172 974 940 1235 1356 1363 1661 1457 1487 1334 955 961 908 800 839 968 725 625 601 633 684 690 674 619 590 806 947 1190 1184
1165 1117 1319 1205 999 862 793 744 694 895 839 875 762 698 586 621 523 516 590 406 310 214 195 192 213 274 556 779 966 932 949 1216
1261 854 665 557 508 438 480 611 671 693 727 1060 970 798 433 284 197 135 108 38 10 6 39 76 164 275 454 440 484 466 610 721
1587 911 565 560 473 584 536 461 417 600 695 724 781 584 378 76 9 0 0 0 0 0 1 19 26 37 89 131 249 463 588 303
2059 1813 1211 416 425 460 756 480 488 479 567 175 352 174 72 0 0 0 0 0 0 0 0 0 0 0 0 0 0 0 8 44
2159 2103 1448 801 421 305 156 31 0 22 157 124 71 21 0 0 0 0 0 0 0 0 0 0 0 0 0 0 0 0 0 0
1253 1742 1110 783 290 38 0 0 0 0 6 8 0 0 0 0 0 0 0 0 0 0 0 0 0 0 0 0 0 0 0 0
1074 1090 1106 619 61 1 0 0 0 0 0 0 0 0 0 0 0 0 0 0 0 0 0 0 0 0 0 0 0 0 0 0
1194 946 1177 748 70 0 0 0 0 0 0 0 0 0 0 0 0 0 0 0 0 0 0 0 0 0 0 0 0 0 0 0
1037 964 643 123 0 0 0 0 0 0 0 0 0 0 0 0 0 0 0 0 0 0 0 0 0 0 0 0 0 0 0 0
695 220 2 0 0 0 0 0 0 0 0 0 0 0 0 0 0 0 0 0 0 0 0 0 0 0 0 0 0 0 0 5
895 530 0 0 0 0 0 0 0 0 0 0 0 0 0 0 0 0 0 0 0 0 0 0 0 0 0 0 0 0 0 0
736 556 193 0 0 0 0 0 0 0 0 0 0 0 0 0 0 0 0 0 0 0 0 0 0 0 0 0 0 0 0 0
468 310 31 0 0 0 0 0 0 0 0 0 0 0 0 0 0 0 0 0 0 0 0 0 0 0 0 0 0 0 0 0
265 151 7 0 0 0 0 0 0 0 0 0 0 0 0 0 0 0 0 0 0 0 0 0 0 0 0 0 0 0 0 0
202 47 0 0 0 0 0 0 0 0 0 0 0 0 0 0 0 0 0 0 0 0 0 0 0 0 0 0 0 0 0 0
159 18 0 0 0 0 0 0 0 0 0 0 0 0 0 0 0 0 0 0 0 0 0 0 0 0 0 0 0 0 0 0
15 38 5 0 0 0 0 0 0 0 0 0 0 0 0 0 0 0 0 0 0 0 0 0 0 0 0 0 0 0 0 0
34 50 27 0 0 0 0 0 0 0 0 0 0 0 0 0 0 0 0 0 0 0 0 0 0 0 0 0 0 0 0 0

GFSFLT2_con_mucape_168.txt.gz
CAPE
1576 1479 1456 1380 1322 1388 1516 1681 1841 1982 2106 2022 1826 1642 1289 1167 980 1247 1196 1212 1135 1085 935 788 697 635 509 436 456 649 898 1019
1142 1104 1143 1296 1347 1436 1462 1597 1688 1749 1707 1542 1244 900 809 817 711 889 841 604 561 589 614 632 623 606 541 561 735 851 743 699
1385 1218 926 951 773 918 1056 1070 1444 1291 1221 1174 881 666 587 643 636 623 600 549 423 311 270 237 226 242 378 500 532 552 403 598
1179 969 917 759 1171 878 835 758 732 755 781 745 640 541 370 257 123 189 147 74 43 3 1 17 65 149 288 373 216 325 361 379
1002 1182 1106 850 661 525 533 594 631 694 810 979 713 394 131 48 13 18 2 0 0 0 0 0 0 2 5 26 1 13 260 394
836 661 588 509 475 589 632 644 583 582 649 484 154 100 35 47 3 0 0 0 0 0 0 0 0 0 0 0 0 0 0 0
1133 750 486 452 588 595 463 297 228 186 169 120 172 21 14 9 0 0 0 0 0 0 0 0 0 0 0 0 0 0 0 0
1367 1045 853 522 475 394 301 268 211 116 3 15 91 37 3 0 0 0 0 0 0 0 0 0 0 0 0 0 0 0 0 0
1418 1260 1375 523 389 353 288 47 0 19 0 7 63 2 0 0 0 0 0 0 0 0 0 0 0 0 0 0 0 0 0 0
1266 1055 868 1179 406 261 108 0 0 0 0 0 0 0 0 0 0 0 0 0 0 0 0 0 0 0 0 0 0 0 0 0
1361 1113 1065 613 831 218 4 0 0 0 0 0 0 0 0 0 0 0 0 0 0 0 0 0 0 0 0 0 0 0 0 0
1482 1164 959 632 295 219 120 0 0 0 0 0 0 0 0 0 0 0 0 0 0 0 0 0 0 0 0 0 0 0 2 1
1467 1279 995 741 481 418 71 0 0 0 0 0 0 0 0 0 0 0 0 0 0 0 0 0 0 0 0 0 0 0 0 0
1528 1302 932 784 436 217 11 0 0 0 0 0 0 0 0 0 0 0 0 0 0 0 0 0 0 0 0 0 0 0 0 0
1300 1302 973 627 524 291 0 0 0 0 0 0 0 0 0 0 0 0 0 0 0 0 0 0 0 0 0 0 0 0 0 0
1122 998 785 454 377 69 0 0 0 0 0 0 0 0 0 0 0 0 0 0 0 0 0 0 0 0 0 0 0 0 0 0
829 768 580 407 259 11 0 0 0 0 0 5 1 0 0 0 0 0 0 0 0 0 0 0 0 0 0 0 0 0 0 0
661 464 429 329 71 2 0 0 0 0 17 23 16 0 0 0 0 0 0 0 0 0 0 0 0 0 0 0 0 0 0 0
514 467 284 87 10 0 0 0 0 0 0 4 9 4 0 0 0 0 0 0 0 0 0 0 0 0 0 0 0 0 0 0
203 198 43 0 21 0 0 0 0 0 0 0 4 6 0 0 0 0 0 0 0 0 0 0 0 0 0 0 0 0 0 0

GFSFLT2_con_mucape_174.txt.gz
CAPE
1333 1600 1720 1790 1848 1804 1683 1736 1973 2124 2189 2038 1817 1658 1626 1705 1559 1369 1174 946 834 789 738 676 556 429 345 285 294 486 519 531
1076 1360 1432 1432 1472 1549 1645 1819 1983 2017 1910 1639 1420 1268 1233 1193 1078 1010 914 829 730 622 515 440 404 386 336 350 506 520 396 388
879 994 1146 1159 1248 1420 1593 1775 1785 1786 1624 1375 1011 765 679 652 777 839 737 590 504 471 435 342 196 117 107 209 352 268 190 185
572 728 865 1069 1136 1351 1547 1580 1619 1461 1295 983 726 663 621 560 582 600 579 531 390 135 23 8 7 13 32 110 194 181 117 208
761 674 676 849 940 1095 1144 1180 1209 1158 1045 916 788 643 557 540 493 394 284 121 20 0 0 0 0 0 0 0 2 3 0 0
986 526 819 747 575 424 652 824 729 1227 1103 934 663 571 496 339 77 0 0 0 0 0 0 0 0 0 0 0 0 0 0 1
563 363 818 751 628 1003 1261 1244 1047 1040 928 687 655 604 445 107 0 0 0 0 0 0 0 0 0 0 0 0 0 0 0 1
1273 1316 1236 713 408 893 999 848 796 871 842 858 751 500 212 4 0 0 0 0 0 0 0 0 0 0 0 0 0 0 0 1
1730 1675 1258 636 699 960 675 642 735 817 864 788 533 239 57 0 0 0 0 0 0 0 0 0 0 0 0 0 0 0 0 0
1666 1566 970 775 646 630 569 642 724 739 669 492 255 106 4 0 0 0 0 0 0 0 0 0 0 0 0 0 0 0 0 0
1712 1386 758 645 525 496 555 662 700 648 256 146 66 35 8 2 0 0 0 0 0 0 0 0 0 0 0 0 0 0 0 0
1692 1460 937 506 443 460 503 783 659 402 258 153 8 2 17 15 0 0 0 0 0 0 0 0 0 0 0 0 0 0 0 0
1951 1559 1185 950 784 606 557 777 696 316 41 0 0 0 0 0 0 0 0 0 0 0 0 0 0 0 0 0 0 0 0 0
1935 2011 1506 1273 1143 707 412 285 391 225 89 4 0 0 0 0 0 0 0 0 0 0 0 0 0 0 0 0 0 0 0 0
2205 1867 1615 1330 1045 780 506 260 142 130 87 64 53 10 0 0 0 0 0 0 0 0 0 0 0 0 0 0 0 0 0 0
1980 1680 1320 1128 968 790 584 347 194 94 82 84 51 3 0 0 0 0 0 0 0 0 0 0 0 0 0 0 0 0 0 0
1548 1414 1166 1163 816 562 466 345 277 225 74 5 3 0 0 0 0 0 0 0 0 0 0 0 0 0 0 0 0 0 0 0
1359 1111 1253 730 719 536 441 396 248 55 11 0 10 15 0 0 0 0 0 0 0 0 0 0 0 0 0 0 0 0 0 0
1011 892 1158 852 750 517 348 229 6 2 7 0 4 11 0 0 0 0 0 0 0 0 0 0 0 0 0 0 0 0 0 0
120 421 665 452 71 0 0 0 0 0 9 7 0 8 7 10 3 0 0 0 0 0 0 0 0 0 0 0 0 0 0 0

GFSFLT2_con_mucape_180.txt.gz
CAPE
2039 1708 1518 1435 1632 1624 1531 1608 1793 1967 2077 2247 2314 2104 1945 2079 1964 1864 1636 1370 1190 916 584 567 483 446 333 252 299 614 1443 1390
2151 2080 1780 1835 1918 1325 1371 1536 1717 1837 1923 2014 1862 1697 1660 1547 1408 1415 1241 959 574 526 483 523 282 251 257 312 347 530 768 700
1452 1708 2004 2183 2018 1552 1229 1441 1615 1709 1781 1692 1685 1865 1923 1532 1052 773 637 486 470 438 329 224 159 104 184 246 373 523 518 549
1376 1537 1666 1927 1700 1994 1864 1855 2070 2172 2099 2181 1834 1753 1667 1356 961 547 512 484 423 351 272 88 0 20 0 9 119 601 493 511
1185 1430 1788 1770 1599 1884 2154 2087 1973 2099 2083 1868 1740 1701 1566 1398 682 457 468 405 352 266 33 0 0 0 0 0 3 179 239 515
988 1103 1614 1722 1570 1628 1757 1832 1891 1652 1928 2211 1714 1564 1349 1319 943 550 331 399 229 33 0 0 0 0 0 0 0 0 71 217
1063 1011 1207 1407 1327 1525 1380 1508 1628 1618 1874 1894 1513 1323 1189 907 626 286 203 104 7 0 0 0 0 0 0 0 0 0 0 8
1126 1037 1250 1381 1461 1575 1569 1570 1632 2098 1630 1670 1649 1346 954 471 287 186 26 0 0 0 0 0 0 0 0 0 0 0 1 9
1049 1040 1115 1306 1605 1703 1617 1671 1636 1723 1433 1572 1443 1338 689 313 316 52 0 0 0 0 0 0 0 0 0 0 0 0 5 8
991 932 964 1093 1428 1506 1351 1139 1086 1078 1029 1298 1000 772 415 473 278 2 0 0 0 0 0 0 0 0 0 0 0 1 9 14
1108 1201 993 1230 1253 1336 1057 698 652 417 270 548 945 637 537 572 246 7 0 0 0 0 0 0 0 0 0 0 1 3 9 3
1642 1335 1108 1389 692 530 473 386 511 557 906 1179 1111 487 724 609 214 21 0 0 0 0 0 0 0 0 0 0 0 0 0 0
1706 1308 1343 984 669 563 557 674 583 794 925 972 730 788 884 527 127 32 4 2 0 0 0 0 0 0 0 0 0 0 0 0
2050 1785 1485 1328 1162 1023 907 916 460 791 585 565 673 728 585 287 54 23 14 8 0 0 0 0 0 0 0 0 0 0 0 0
2501 2309 1712 1462 1229 1061 1162 929 644 560 504 632 452 368 270 90 39 17 5 3 0 0 0 0 0 0 0 0 0 0 0 0
2111 2413 2273 1841 1395 1275 1171 739 521 419 360 242 281 238 148 71 24 12 5 0 0 0 0 0 0 0 0 0 0 0 0 0
1548 1653 1790 1774 2006 1715 1158 789 532 359 263 193 143 122 39 21 8 7 22 6 0 0 0 0 0 0 0 0 0 0 0 0
988 1197 1129 1106 1517 1286 1311 908 609 445 330 161 97 28 6 10 21 5 2 8 2 0 0 0 0 0 0 0 0 0 0 0
218 704 1176 951 878 790 754 679 693 585 395 342 212 35 7 0 0 0 1 0 0 0 0 0 0 0 0 0 0 0 0 0
0 12 419 618 513 711 642 621 518 375 49 19 0 0 0 0 0 0 0 0 0 0 0 0 0 0 0 0 0 0 0 0